Tracking 25995 objects as of 19-Aug-2022
HD Live streaming from Space Station
objects crossing your sky now

SL-8 R/B

Track SL-8 R/B now!
10-day predictions


NORAD ID: 9848
Int'l Code: 1977-013B
Perigee: 974.4 km
Apogee: 999.2 km
Inclination: 83.0 °
Period: 104.7 minutes
Semi major axis: 7357 km
RCS: 4.757 m2 (large)
Launch date: February 21, 1977
Source: Commonwealth of Independent States (former USSR) (CIS)
Launch site: PLESETSK MISSILE AND SPACE COMPLEX (PKMTR)

Note: This is a ROCKET BODY
aabbcc
Your satellite tracking list
Your tracking list is empty




NASA's NSSDC Master Catalog

Two Line Element Set (TLE):
1 09848U 77013B   22231.49915120  .00000025  00000-0  98564-5 0  9992
2 09848  82.9514  26.9142 0016841  13.6576  44.6420 13.75554312282785
Source of the keplerian elements: AFSPC